TimeCST,TemperatureF,Dew PointF,Humidity,Sea Level PressureIn,VisibilityMPH,Wind Direction,Wind SpeedMPH,Gust SpeedMPH,PrecipitationIn,Events,Conditions,WindDirDegrees,DateUTC
12:53 AM,37.0,30.0,76,30.38,10.0,Calm,Calm,-,N/A,,Clear,0,2012-11-14 06:53:00
1:53 AM,36.0,30.9,82,30.37,10.0,NE,4.6,-,N/A,,Clear,50,2012-11-14 07:53:00
2:53 AM,35.1,30.9,85,30.38,10.0,Calm,Calm,-,N/A,,Clear,0,2012-11-14 08:53:00
3:53 AM,34.0,30.0,85,30.38,10.0,North,3.5,-,N/A,,Clear,360,2012-11-14 09:53:00
4:53 AM,35.1,30.0,82,30.37,10.0,North,4.6,-,N/A,,Clear,360,2012-11-14 10:53:00
5:53 AM,33.1,28.0,82,30.37,10.0,North,4.6,-,N/A,,Clear,10,2012-11-14 11:53:00
6:53 AM,33.1,28.0,82,30.39,10.0,WNW,3.5,-,N/A,,Clear,300,2012-11-14 12:53:00
7:53 AM,39.0,30.9,73,30.40,10.0,North,4.6,-,N/A,,Clear,10,2012-11-14 13:53:00
8:53 AM,43.0,30.9,62,30.40,10.0,North,6.9,-,N/A,,Clear,360,2012-11-14 14:53:00
9:53 AM,46.0,30.9,56,30.37,10.0,Calm,Calm,-,N/A,,Clear,0,2012-11-14 15:53:00
10:53 AM,48.9,33.1,54,30.37,10.0,Variable,6.9,-,N/A,,Clear,0,2012-11-14 16:53:00
11:53 AM,51.1,33.1,50,30.35,10.0,NW,8.1,-,N/A,,Clear,320,2012-11-14 17:53:00
12:53 PM,52.0,34.0,50,30.33,10.0,WNW,6.9,-,N/A,,Clear,300,2012-11-14 18:53:00
1:53 PM,53.1,33.1,47,30.32,10.0,NNW,8.1,16.1,N/A,,Clear,340,2012-11-14 19:53:00
2:53 PM,54.0,33.1,45,30.31,10.0,North,9.2,-,N/A,,Clear,10,2012-11-14 20:53:00
3:53 PM,53.1,34.0,48,30.31,10.0,North,5.8,-,N/A,,Clear,10,2012-11-14 21:53:00
4:53 PM,48.9,34.0,56,30.31,10.0,North,5.8,-,N/A,,Clear,350,2012-11-14 22:53:00
5:53 PM,43.0,34.0,71,30.32,10.0,NNW,3.5,-,N/A,,Clear,340,2012-11-14 23:53:00
6:53 PM,36.0,32.0,86,30.32,10.0,Calm,Calm,-,N/A,,Clear,0,2012-11-15 00:53:00
7:53 PM,36.0,34.0,93,30.32,10.0,Calm,Calm,-,N/A,,Clear,0,2012-11-15 01:53:00
8:53 PM,34.0,33.1,96,30.33,10.0,Calm,Calm,-,N/A,,Clear,0,2012-11-15 02:53:00
9:53 PM,35.1,34.0,96,30.33,10.0,Calm,Calm,-,N/A,,Clear,0,2012-11-15 03:53:00
10:53 PM,33.1,32.0,96,30.33,10.0,Calm,Calm,-,N/A,,Clear,0,2012-11-15 04:53:00
11:53 PM,32.0,30.9,96,30.32,8.0,Calm,Calm,-,N/A,,Clear,0,2012-11-15 05:53:00